Change the Weather History Date:

Sunday, March 9, 2014

  Actual Average Record
Temperature  
Mean Temperature 32 °F -  
Max Temperature 39 °F 31 °F 51 °F (1984)
Min Temperature 24 °F 23 °F 3 °F (1989)
Degree Days  
Heating Degree Days 34    
Moisture  
Dew Point 27 °F    
Average Humidity 87    
Maximum Humidity 91    
Minimum Humidity 83    
Precipitation  
Precipitation 0.06 in - - ()
Sea Level Pressure  
Sea Level Pressure 29.36 in    
Wind  
Wind Speed 10 mph (NW)    
Max Wind Speed 18 mph    
Max Gust Speed 31 mph    
Visibility 6 miles    
Events Rain , Snow    
Averages and records for this station are not official NWS values.
T = Trace of Precipitation, MM = Missing Value Source: NWS Daily Summary

Daily Weather History Graph

Daily Weather History Graph

Search for Another Location

Airport or City:

Trip Planner

Search our weather history database for the weather conditions in past years. The results will help you decide how hot, cold, wet, or windy it might be!

Date:

Astronomy

Mar. 09, 2014 Rise Set
Actual Time 7:35 AM AKDT 6:50 PM AKDT
Civil Twilight 6:54 AM AKDT 7:31 PM AKDT
Nautical Twilight 6:07 AM AKDT 8:18 PM AKDT
Astronomical Twilight 5:18 AM AKDT 9:08 PM AKDT
Moon 11:46 AM AKDT (3/9) 4:10 AM AKDT (3/9)
Length of Visible Light 12h 36m
Length of Day
11h 15m
Waxing Gibbous, 62% of the Moon is Illuminated
Mar 9
Waxing Gibbous
Mar 16
Full
Mar 23
Last Quarter
Mar 30
New
Apr 7
First Quarter

Hourly Weather History & Observations

Time (AKDT) Temp. Windchill Dew Point Humidity Pressure Visibility Wind Dir Wind Speed Gust Speed Precip Events Conditions
12:02 AM 24.1 °F 13.7 °F 21.0 °F 88% 29.16 in 2.0 mi WNW 10.4 mph - 0.00 in Snow Light Snow
12:14 AM 24.1 °F 14.4 °F 21.0 °F 88% 29.17 in 4.0 mi WNW 9.2 mph - 0.00 in Snow Light Snow
12:54 AM 25.0 °F 17.1 °F 21.0 °F 85% 29.20 in 2.0 mi NW 6.9 mph - 0.00 in Snow Light Snow
1:02 AM 25.0 °F 18.1 °F 21.0 °F 85% 29.19 in 1.8 mi WNW 5.8 mph - 0.01 in Snow Light Snow
1:08 AM 25.0 °F 18.1 °F 21.0 °F 85% 29.19 in 3.0 mi WNW 5.8 mph - 0.01 in Snow Light Snow
1:26 AM 25.0 °F 17.1 °F 21.0 °F 85% 29.20 in 2.0 mi West 6.9 mph - 0.01 in Snow Light Snow
1:40 AM 25.0 °F 15.5 °F 21.0 °F 85% 29.20 in 4.0 mi WNW 9.2 mph - 0.01 in Snow Light Snow
1:54 AM 24.1 °F 14.4 °F 21.0 °F 88% 29.22 in 4.0 mi West 9.2 mph - 0.01 in Snow Light Snow
3:19 AM 24.1 °F 13.7 °F 21.9 °F 91% 29.21 in 1.8 mi WNW 10.4 mph - 0.00 in Snow Light Snow
3:35 AM 24.1 °F 15.2 °F 21.9 °F 91% 29.22 in 2.0 mi WNW 8.1 mph - 0.00 in Snow Light Snow
3:54 AM 25.0 °F 15.5 °F 21.0 °F 85% 29.23 in 3.0 mi WNW 9.2 mph - 0.00 in Snow Light Snow
4:07 AM 25.0 °F 14.8 °F 21.0 °F 85% 29.22 in 2.0 mi WNW 10.4 mph - 0.01 in Snow Light Snow
4:25 AM 24.1 °F 14.4 °F 21.0 °F 88% 29.22 in 3.0 mi WNW 9.2 mph - 0.01 in Snow Light Snow
4:41 AM 24.1 °F 15.2 °F 21.0 °F 88% 29.23 in 2.5 mi WNW 8.1 mph - 0.01 in Snow Light Snow
4:54 AM 24.1 °F 13.1 °F 21.0 °F 88% 29.24 in 1.8 mi NW 11.5 mph - 0.01 in Snow Light Snow
5:21 AM 24.1 °F 16.0 °F 21.0 °F 88% 29.23 in 2.0 mi NW 6.9 mph - 0.00 in Snow Light Snow
5:47 AM 24.1 °F 12.5 °F 21.0 °F 88% 29.23 in 1.5 mi WNW 12.7 mph - 0.00 in Snow Light Snow
5:54 AM 24.1 °F 12.5 °F 21.0 °F 88% 29.24 in 2.0 mi WNW 12.7 mph - 0.00 in Snow Light Snow
6:03 AM 24.1 °F 12.5 °F 21.0 °F 88% 29.23 in 1.2 mi WNW 12.7 mph - 0.00 in Snow Light Snow
6:54 AM 24.1 °F 12.5 °F 21.0 °F 88% 29.25 in 2.5 mi WNW 12.7 mph - 0.01 in Snow Light Snow
7:12 AM 24.1 °F 13.7 °F 21.0 °F 88% 29.24 in 3.0 mi West 10.4 mph - 0.00 in Snow Light Snow
7:24 AM 24.1 °F 13.7 °F 21.0 °F 88% 29.25 in 4.0 mi WNW 10.4 mph - 0.01 in Snow Light Snow
7:41 AM 24.1 °F 12.5 °F 21.0 °F 88% 29.25 in 1.8 mi NW 12.7 mph - 0.01 in Snow Light Snow
7:54 AM 24.1 °F 12.5 °F 21.0 °F 88% 29.27 in 1.2 mi WNW 12.7 mph - 0.01 in Snow Light Snow
8:01 AM 24.1 °F 13.1 °F 21.0 °F 88% 29.26 in 3.0 mi WNW 11.5 mph - 0.00 in Snow Light Snow
8:18 AM 24.1 °F 11.0 °F 21.0 °F 88% 29.27 in 2.5 mi WNW 16.1 mph - 0.00 in Snow Light Snow
8:52 AM 24.8 °F 14.0 °F 21.2 °F 86% 29.28 in 4.0 mi WNW 11.5 mph - 0.00 in Snow Light Snow
8:54 AM 24.1 °F 12.5 °F 21.0 °F 88% 29.29 in 4.0 mi WNW 12.7 mph - 0.00 in Snow Light Snow
9:16 AM 25.0 °F 14.8 °F 21.9 °F 88% 29.29 in 1.8 mi WNW 10.4 mph - 0.00 in Snow Light Snow
9:27 AM 25.0 °F 14.8 °F 21.9 °F 88% 29.30 in 2.5 mi WNW 10.4 mph - 0.01 in Snow Light Snow
9:34 AM 25.0 °F 15.5 °F 21.9 °F 88% 29.30 in 3.0 mi WNW 9.2 mph - 0.01 in Snow Light Snow
9:54 AM 26.1 °F 21.9 °F 23.0 °F 88% 29.31 in 7.0 mi Variable 3.5 mph - 0.01 in Snow Light Snow
10:20 AM 26.1 °F 14.5 °F 23.0 °F 88% 29.31 in 10.0 mi West 13.8 mph - 0.00 in   Overcast
10:54 AM 30.0 °F 24.1 °F 27.0 °F 88% 29.33 in 7.0 mi Variable 5.8 mph - 0.00 in   Overcast
11:54 AM 37.0 °F 29.8 °F 34.0 °F 89% 29.36 in 10.0 mi East 10.4 mph 19.6 mph 0.00 in   Overcast
12:22 PM 37.9 °F 30.5 °F 34.0 °F 86% 29.36 in 10.0 mi ESE 11.5 mph 19.6 mph 0.00 in Rain Light Rain
12:54 PM 37.9 °F 29.2 °F 35.1 °F 89% 29.38 in 10.0 mi East 15.0 mph 26.5 mph 0.00 in Rain Light Rain
1:54 PM 39.0 °F 29.6 °F 35.1 °F 86% 29.39 in 9.0 mi East 18.4 mph 29.9 mph 0.00 in Rain Light Rain
2:32 PM 39.0 °F 31.4 °F 35.1 °F 86% 29.40 in 10.0 mi ESE 12.7 mph 23.0 mph 0.00 in   Overcast
2:51 PM 39.2 °F 30.8 °F 35.6 °F 87% 29.40 in 10.0 mi East 15.0 mph 27.6 mph 0.00 in Rain Light Rain
2:54 PM 39.0 °F 31.8 °F 35.1 °F 86% 29.42 in 10.0 mi East 11.5 mph 27.6 mph 0.00 in Rain Light Rain
3:54 PM 39.0 °F 30.3 °F 35.1 °F 86% 29.43 in 10.0 mi East 16.1 mph 29.9 mph 0.00 in Rain Light Rain
4:30 PM 39.0 °F 31.0 °F 35.1 °F 86% 29.44 in 10.0 mi ESE 13.8 mph 31.1 mph 0.01 in   Overcast
4:54 PM 37.9 °F 30.0 °F 35.1 °F 89% 29.46 in 10.0 mi East 12.7 mph 28.8 mph 0.01 in   Overcast
5:01 PM 37.9 °F 29.6 °F 35.1 °F 89% 29.45 in 10.0 mi ESE 13.8 mph 28.8 mph N/A   Overcast
5:54 PM 37.9 °F 29.2 °F 34.0 °F 86% 29.48 in 10.0 mi ESE 15.0 mph 27.6 mph 0.00 in   Overcast
6:54 PM 37.9 °F 30.5 °F 33.1 °F 83% 29.51 in 10.0 mi ESE 11.5 mph 24.2 mph 0.00 in   Overcast
7:54 PM 37.9 °F 28.9 °F 33.1 °F 83% 29.54 in 10.0 mi ESE 16.1 mph 26.5 mph N/A   Overcast
8:54 PM 37.9 °F 29.6 °F 33.1 °F 83% 29.57 in 10.0 mi East 13.8 mph 27.6 mph N/A   Overcast
9:54 PM 37.0 °F 28.1 °F 33.1 °F 86% 29.60 in 10.0 mi ESE 15.0 mph 25.3 mph N/A   Overcast
10:02 PM 37.0 °F 28.1 °F 33.1 °F 86% 29.60 in 10.0 mi East 15.0 mph 23.0 mph N/A   Overcast
10:54 PM 37.0 °F 29.3 °F 33.1 °F 86% 29.64 in 10.0 mi ESE 11.5 mph 24.2 mph N/A   Overcast
11:54 PM 37.0 °F 31.0 °F 33.1 °F 86% 29.67 in 10.0 mi East 8.1 mph 18.4 mph N/A   Overcast
12:02 AM 37.0 °F 29.8 °F 33.1 °F 86% 29.66 in 10.0 mi East 10.4 mph 19.6 mph N/A   Overcast
12:17 AM 37.0 °F 29.3 °F 33.1 °F 86% 29.67 in 10.0 mi ESE 11.5 mph 23.0 mph N/A   Overcast
12:33 AM 36.0 °F 28.0 °F 33.1 °F 89% 29.68 in 10.0 mi ESE 11.5 mph 19.6 mph N/A   Overcast
12:40 AM 37.0 °F 29.3 °F 33.1 °F 86% 29.68 in 10.0 mi East 11.5 mph 21.9 mph N/A   Overcast
12:54 AM 37.0 °F 30.4 °F 33.1 °F 86% 29.70 in 10.0 mi East 9.2 mph 18.4 mph N/A   Overcast